Location: Kouchibouguac National Park
(46.8081°N, 64.9088°W)
Time: 10:54:22
(UTC-03:00)

Daily predictions for brighter satellites

Satellite Brightness Start Highest point End
(mag) Time Altitude Azimuth Time Altitude Azimuth Time Altitude Azimuth
ATLAS 2AS CENTAUR R/B 3.2 21:43:15 10° SSW 21:50:55 61° ESE 21:58:54 10° NE
Thor Agena Rocket 4.4 21:49:47 10° N 21:54:46 54° WNW 21:59:41 10° SW
Helios 1A 4.3 21:52:35 10° SE 21:56:08 27° ENE 21:59:43 10° N
Cosmos 1908 3.5 21:54:39 10° N 21:58:28 53° ENE 22:02:15 10° SSE
Cosmos 1553 Rocket 4.4 21:55:33 10° SSE 22:01:14 44° E 22:06:57 10° NNE
Meteor 2-5 Rocket 4.2 21:57:01 10° SSW 22:02:57 72° WNW 22:08:51 10° N
In-Cosmos 22 4.3 21:58:01 10° S 22:03:37 88° WNW 22:09:21 10° N
Cosmos 1340 3.4 22:00:26 10° N 22:04:01 38° ENE 22:07:34 10° SE
Iridium 4 Rocket 3.9 22:00:17 10° S 22:05:49 71° W 22:10:57 10° N
MetOp-B 4.2 22:03:36 10° SSE 22:08:58 87° ENE 22:14:22 10° NNW
Cosmos 1953 Rocket 3.9 22:07:01 10° SSW 22:11:21 72° W 22:15:46 10° N
ERS-1 Rocket 3.1 22:07:23 10° SSE 22:12:23 70° ENE 22:17:26 10° N
Meteor 2-1 Rocket 4.4 22:08:49 10° N 22:14:47 78° ENE 22:20:41 10° SSE
Cosmos 1437 3.8 22:12:38 10° NNW 22:15:39 42° W 22:18:39 10° SSW
Cosmos 1758 Rocket 4.5 22:12:13 10° SSW 22:16:33 52° WNW 22:20:53 10° N
Meteor 2-10 4.3 22:12:48 10° N 22:18:12 65° ENE 22:23:44 10° SSE
USA 215 4.2 22:12:29 10° SSE 22:18:28 37° SW 22:24:30 10° WNW
Cosmos 1674 2.6 22:17:18 10° S 22:21:06 79° E 22:24:59 10° NNE
Cosmos 2251 Rocket 4.1 22:18:07 10° S 22:23:02 39° ESE 22:27:56 10° NE
Cosmos 1300 3.7 22:20:01 10° N 22:23:31 33° ENE 22:26:29 13° SE
CENTAUR R/B 3.9 22:16:38 10° NW 22:23:58 45° NE 22:31:58 10° ESE
Terra 2.8 22:23:37 11° SE 22:27:38 34° ENE 22:31:55 10° N
Cosmos 2221 3.5 22:24:06 10° N 22:28:01 33° ENE 22:31:18 13° SE
NOSS 3-4 (A) 4.1 22:23:03 10° S 22:28:28 33° ESE 22:34:06 10° NE
NOSS 3-4 (C) 4.1 22:23:10 10° S 22:28:33 33° ESE 22:34:10 10° NE
Cosmos 1726 2.1 22:25:14 10° N 22:29:01 86° E 22:32:39 11° S
Resurs 01 Rocket 4.2 22:26:52 10° SW 22:29:47 17° W 22:32:43 10° NW
Cosmos 921 Rocket 3.9 22:27:35 10° NNW 22:31:54 49° WSW 22:36:16 10° S
Meteor 1-29 4.3 22:37:40 10° NE 22:40:26 23° E 22:41:59 17° SE
ARGOS 4.2 22:38:03 10° SSW 22:43:09 41° W 22:48:18 10° NNW
CZ-2C R/B 3.9 22:38:29 14° SE 22:43:17 45° ENE 22:48:41 10° N
SL-8 R/B 3.6 22:38:37 10° WSW 22:43:26 74° SSE 22:48:17 10° ENE
Cosmos 2278 Rocket 2.5 22:38:36 10° S 22:43:59 47° ESE 22:49:24 10° NE
Cosmos 1461 3.5 22:42:03 10° S 22:46:28 44° ESE 22:51:00 10° NE
APEX 3.2 22:49:42 10° NW 22:52:46 58° WSW 22:55:17 18° SSE
Cosmos 1745 Rocket 4.1 22:47:05 10° N 22:53:27 83° W 22:59:18 12° S
Meteor 1-21 Rocket 4.3 22:48:10 10° S 22:54:00 74° E 22:59:47 10° NNE
Meteor 2-13 Rocket 4.5 22:48:13 10° N 22:54:20 88° W 22:59:47 13° S
NOSS 2-2 (D) 4.4 22:55:16 19° SSE 22:56:59 26° ESE 23:00:35 10° ENE
COSMOS 2406 4.0 22:53:54 10° NW 22:59:23 45° WSW 23:04:22 12° S
IGS 5A 3.4 22:56:51 19° SSE 22:59:47 75° ENE 23:03:58 10° N
Cosmos 220 Rocket 4.0 22:56:19 10° SSW 23:00:32 83° WNW 23:04:47 10° NNE
Cosmos 1844 Rocket 3.7 22:55:24 10° SW 23:00:52 49° WNW 23:06:22 10° NNE
Cosmos 1844 4.5 23:01:34 10° SW 23:07:11 56° WNW 23:12:53 10° NNE
ATLAS 3B R/B 3.1 23:01:34 10° NW 23:07:55 50° WSW 23:12:52 17° S
CARTOSAT-1 3.5 23:06:45 20° SSE 23:09:46 88° W 23:14:07 10° NNW
SPOT 5 3.6 23:06:25 13° S 23:10:51 56° W 23:16:06 10° NNW
SL-14 R/B 3.3 23:09:27 14° SSW 23:12:43 80° W 23:16:41 10° N
ATLAS 5 CENTAUR R/B 1.9 23:14:23 15° S 23:17:55 46° ESE 23:22:38 10° NE
Lacrosse 5 3.4 23:14:29 10° W 23:19:14 39° NNW 23:23:59 10° NE
Cosmos 1076 Rocket 3.5 23:18:58 23° S 23:21:29 63° E 23:25:42 10° NNE
NOSS 2-2 (C) 3.6 23:20:40 21° S 23:22:57 46° ESE 23:27:09 10° NE
NOSS 3-2 (A) 4.5 23:16:29 10° NW 23:23:45 52° WSW 23:29:42 18° S
SPOT 1/Viking Rocket 4.4 23:20:08 13° SSW 23:24:25 44° W 23:29:21 10° NNW
H-2A R/B 4.1 23:20:40 10° SW 23:24:49 23° W 23:29:03 10° NW
SL-27 R/B 2.9 23:21:27 10° NNW 23:25:02 51° ENE 23:26:36 29° SE
Cosmos 1709 Rocket 4.0 23:20:28 10° N 23:26:45 90° SE 23:31:05 21° S
Cosmos 2297 4.2 23:25:02 22° SSE 23:28:15 42° ESE 23:33:35 10° NE
Cosmos 2082 Rocket 2.2 23:23:40 10° NNW 23:29:26 78° ENE 23:33:00 24° SE
Cosmos 1833 Rocket 2.7 23:24:31 10° NNW 23:30:10 87° ENE 23:33:38 24° SSE
Helios 1B rocket 2.7 23:26:11 10° N 23:30:16 66° WNW 23:33:40 14° SSW
Mayak 0.8 23:28:57 10° ENE 23:30:53 13° E 23:31:36 12° E
Helios 1A 4.4 23:28:25 13° SSW 23:31:36 31° W 23:35:23 10° NNW
Cosmos 1408 Rocket 4.4 23:30:35 25° SE 23:32:20 35° E 23:36:24 10° NNE
Cosmos 1626 2.1 23:31:41 25° S 23:33:44 87° W 23:37:29 10° N
Cosmos 1766 Rocket 4.1 23:31:49 27° SSE 23:33:46 44° E 23:38:02 10° NNE
CZ-2C R/B 2.7 23:30:58 10° NNE 23:36:23 62° E 23:39:35 24° S
Meteor 1-27 4.5 23:31:23 10° N 23:37:12 62° ENE 23:40:39 25° SSE
Cosmos 1703 3.6 23:36:57 32° SSE 23:38:19 48° E 23:42:06 10° NNE
YAOGAN 11 4.3 23:36:51 25° S 23:39:27 72° WSW 23:44:00 10° NNW
Cosmos 2074 Rocket 4.4 23:34:40 10° N 23:40:47 52° ENE 23:44:29 24° SE
ATLAS 2AS CENTAUR R/B 4.2 23:34:41 10° WSW 23:42:19 47° NW 23:50:07 10° NE
Meteor 2-19 Rocket 4.4 23:36:26 10° N 23:42:37 87° E 23:46:29 24° S
Cosmos 2058 3.9 23:41:41 27° SE 23:42:54 32° E 23:46:35 10° NNE
Cosmos 2151 4.2 23:41:58 23° ESE 23:43:10 27° E 23:46:46 10° NNE
Aureole 3 Rocket 4.0 23:37:55 17° S 23:43:49 85° E 23:49:10 10° N
EO 1 Delta rocket 4.4 23:40:18 10° NNE 23:47:08 72° E 23:50:28 25° S
H-2A R/B 4.2 23:46:13 11° E 23:48:30 16° ENE 23:51:02 10° NNE
